Abakan, Russia

12:59 PM +07 on November 18, 2019 (GMT +0700)
Abakan

Weather History for UNAA - September, 2019

Change the Weather History Date:

Monday, September 30, 2019

  Actual Average Record
Temperature  
Mean Temperature 42 °F -  
Max Temperature 46 °F - - ()
Min Temperature 37 °F - - ()
Degree Days  
Heating Degree Days 24    
Moisture  
Dew Point 27 °F    
Average Humidity 56    
Maximum Humidity 87    
Minimum Humidity 37    
Precipitation  
Precipitation 0.00 in - - ()
Sea Level Pressure  
Sea Level Pressure 29.91 in    
Wind  
Wind Speed 11 mph ()    
Max Wind Speed 25 mph    
Max Gust Speed 31 mph    
T = Trace of Precipitation, MM = Missing Value Source: Averaged Metar Reports

Daily Weather History Graph

Daily Weather History Graph

Search for Another Location

Airport or City:

Astronomy

Sep. 30, 2019 Rise Set
Actual Time 6:53 AM +07 6:35 PM +07
Civil Twilight 6:18 AM +07 7:09 PM +07
Nautical Twilight 5:37 AM +07 7:50 PM +07
Astronomical Twilight 4:54 AM +07 8:33 PM +07
Moon 8:27 AM +07 (9/30) 7:40 PM +07 (9/30)
Length of Visible Light 12h 51m
Length of Day
11h 41m
Waxing Crescent, 3% of the Moon is Illuminated
Sep 30
Waxing Crescent
Oct 5
First Quarter
Oct 14
Full
Oct 21
Last Quarter
Oct 28
New

Hourly Weather History & Observations

Time (+07) Temp. Windchill Dew Point Humidity Pressure Visibility Wind Dir Wind Speed Gust Speed Precip Events Conditions
12:00 AM 42.8 °F 38.7 °F 39.2 °F 87% 29.65 in - SSE 6.7 mph - N/A   Clear
12:30 AM 42.8 °F 40.2 °F 39.2 °F 87% 29.65 in - South 4.5 mph - N/A   Clear
1:00 AM 42.8 °F 40.2 °F 39.2 °F 87% 29.65 in - South 4.5 mph - N/A   Clear
1:30 AM 42.8 °F - 39.2 °F 87% 29.68 in - Variable 2.2 mph - N/A   Clear
2:00 AM 42.8 °F 40.2 °F 39.2 °F 87% 29.65 in - South 4.5 mph - N/A   Clear
2:30 AM 42.8 °F 37.6 °F 37.4 °F 81% 29.68 in - SSW 8.9 mph - N/A   Clear
3:00 AM 42.8 °F 37.6 °F 37.4 °F 81% 29.68 in - SW 8.9 mph - N/A   Clear
3:30 AM 42.8 °F 37.6 °F 37.4 °F 81% 29.68 in - SW 8.9 mph - N/A   Clear
4:00 AM 42.8 °F 37.6 °F 37.4 °F 81% 29.71 in - SW 8.9 mph - N/A   Clear
4:30 AM 42.8 °F 36.7 °F 35.6 °F 76% 29.71 in - SW 11.2 mph - N/A   Clear
5:00 AM 42.8 °F 35.2 °F 32.0 °F 66% 29.71 in - WSW 15.7 mph - N/A   Clear
5:30 AM 42.8 °F 35.2 °F 30.2 °F 61% 29.74 in - WSW 15.7 mph - N/A   Clear
6:00 AM 42.8 °F 35.2 °F 28.4 °F 57% 29.74 in - WSW 15.7 mph - N/A   Clear
6:30 AM 41.0 °F 32.3 °F 28.4 °F 61% 29.77 in - WSW 17.9 mph - N/A   Clear
7:00 AM 41.0 °F 33.6 °F 28.4 °F 61% 29.80 in - WSW 13.4 mph - N/A   Clear
7:30 AM 39.2 °F 31.3 °F 26.6 °F 61% 29.80 in - WSW 13.4 mph - N/A   Clear
8:30 AM 41.0 °F 32.3 °F 24.8 °F 53% 29.83 in - SW 17.9 mph - N/A   Clear
9:00 AM 42.8 °F 34.7 °F 24.8 °F 49% 29.83 in - SW 17.9 mph - N/A   Clear
9:30 AM 44.6 °F 36.5 °F 24.8 °F 46% 29.86 in - WSW 20.1 mph 31.3 mph N/A   Clear
10:00 AM 44.6 °F 36.5 °F 24.8 °F 46% 29.86 in - WSW 20.1 mph - N/A   Clear
11:00 AM 46.4 °F 38.9 °F 23.0 °F 40% 29.89 in - WSW 20.1 mph 31.3 mph N/A   Clear
11:30 AM 44.6 °F 35.6 °F 21.2 °F 39% 29.89 in - West 24.6 mph - N/A   Clear
12:00 PM 44.6 °F 36.0 °F 21.2 °F 39% 29.92 in - WSW 22.4 mph - N/A   Clear
12:30 PM 46.4 °F 38.9 °F 23.0 °F 40% 29.92 in - WSW 20.1 mph - N/A   Clear
1:00 PM 44.6 °F 36.5 °F 23.0 °F 43% 29.95 in - WSW 20.1 mph - N/A   Clear
1:30 PM 44.6 °F 36.0 °F 23.0 °F 43% 29.95 in - WSW 22.4 mph - N/A   Clear
2:00 PM 44.6 °F 35.6 °F 21.2 °F 39% 29.95 in - WSW 24.6 mph - N/A   Clear
2:30 PM 46.4 °F 38.0 °F 21.2 °F 37% 29.95 in - WSW 24.6 mph - N/A   Clear
3:00 PM 44.6 °F 36.5 °F 21.2 °F 39% 29.98 in - WSW 20.1 mph - N/A   Clear
3:30 PM 46.4 °F 38.4 °F 23.0 °F 40% 29.98 in - WSW 22.4 mph - N/A   Clear
4:00 PM 44.6 °F 37.0 °F 21.2 °F 39% 30.01 in - West 17.9 mph 29.1 mph N/A   Clear
4:30 PM 46.4 °F 38.9 °F 23.0 °F 40% 30.04 in - WSW 20.1 mph - N/A   Clear
5:00 PM 46.4 °F 39.3 °F 23.0 °F 40% 30.04 in - WSW 17.9 mph - N/A   Clear
5:30 PM 44.6 °F 37.0 °F 21.2 °F 39% 30.04 in - WSW 17.9 mph - N/A   Clear
6:00 PM 44.6 °F 37.0 °F 21.2 °F 39% 30.06 in - WSW 17.9 mph - N/A   Clear
6:30 PM 42.8 °F 35.9 °F 21.2 °F 42% 30.09 in - WSW 13.4 mph - N/A   Clear
7:00 PM 41.0 °F 33.6 °F 23.0 °F 49% 30.09 in - WSW 13.4 mph - N/A   Clear
7:30 PM 39.2 °F 31.3 °F 23.0 °F 52% 30.12 in - WSW 13.4 mph - N/A   Clear
8:00 PM 39.2 °F 32.2 °F 23.0 °F 52% 30.12 in - WSW 11.2 mph - N/A   Clear
8:30 PM 39.2 °F 33.1 °F 23.0 °F 52% 30.15 in - WSW 8.9 mph - N/A   Clear
9:00 PM 39.2 °F 33.1 °F 23.0 °F 52% 30.18 in - WSW 8.9 mph - N/A   Clear
9:30 PM 37.4 °F 32.2 °F 23.0 °F 56% 30.18 in - WSW 6.7 mph - N/A   Clear
10:00 PM 39.2 °F 31.3 °F 23.0 °F 52% 30.18 in - WSW 13.4 mph - N/A   Clear
10:30 PM 39.2 °F 31.3 °F 23.0 °F 52% 30.21 in - WSW 13.4 mph - N/A   Clear
11:00 PM 37.4 °F 30.9 °F 24.8 °F 60% 30.21 in - SW 8.9 mph - N/A   Clear
11:30 PM 37.4 °F 30.9 °F 24.8 °F 60% 30.21 in - SW 8.9 mph - N/A   Clear